Theta_e
326 326 328 331 332 331 330 329 329 330 331 329 330 331 331 331 329 329 330 330 329 329 328 328 328 329 330 330 329 328 328 329 329 329 329 329 329 329 330 329 329 328
328 328 328 331 333 332 331 330 329 330 330 329 329 331 331 330 329 329 329 328 327 327 328 328 329 329 329 329 329 328 329 329 329 329 329 329 329 329 329 329 328 328
331 331 331 332 332 332 332 331 330 330 330 329 329 330 330 329 328 328 328 327 327 327 328 329 329 329 329 329 329 329 328 329 329 329 329 329 328 328 329 329 328 328
331 331 331 332 332 332 332 332 331 330 330 328 328 330 330 328 327 327 327 327 328 328 329 329 329 328 329 329 329 328 328 328 328 328 328 328 327 327 328 328 327 327
330 330 330 332 332 331 332 332 331 330 329 328 328 329 328 327 327 327 328 328 328 329 329 329 329 329 329 329 328 327 327 326 326 325 325 325 325 326 326 326 326 326
328 327 328 330 331 331 331 331 331 330 329 328 328 328 327 327 328 328 329 328 328 329 329 329 329 329 329 328 327 325 324 323 322 323 324 324 324 325 324 325 325 325
327 327 327 329 330 330 331 330 330 330 329 328 327 327 327 328 328 329 328 328 328 329 329 328 328 328 327 326 325 323 321 321 320 321 323 324 324 323 323 324 324 324
327 327 327 327 328 330 330 330 330 330 329 329 326 325 327 329 328 328 327 327 328 328 328 327 326 326 326 325 325 324 321 321 320 320 322 324 323 323 323 323 323 324
326 327 326 327 328 329 329 329 330 330 329 329 327 325 328 329 328 328 326 326 326 327 328 327 325 325 325 324 324 324 322 321 321 322 323 324 323 323 323 324 324 324
324 326 327 326 327 328 328 327 328 328 328 328 327 327 329 329 328 327 325 324 324 325 326 326 325 325 325 324 324 322 321 321 323 324 323 323 322 322 323 324 325 325
325 326 326 325 326 327 327 327 327 327 326 326 326 327 329 329 327 326 325 324 323 324 325 326 326 326 326 325 323 321 321 323 324 323 322 322 322 321 322 324 326 326
328 328 326 325 325 327 327 326 326 326 326 326 325 327 329 328 327 326 326 325 325 325 326 326 326 326 325 323 321 321 322 323 322 321 321 322 321 321 322 324 326 326
328 328 327 326 325 326 327 326 326 326 326 326 326 326 327 327 327 327 327 327 327 327 326 325 324 324 322 321 321 321 321 321 321 321 321 321 322 322 323 324 326 326
327 328 328 327 325 325 326 326 326 326 326 327 327 326 326 326 327 328 328 327 327 324 321 321 322 322 321 322 322 321 320 320 320 321 321 321 322 322 323 325 326 326
327 327 328 327 326 325 325 326 326 326 327 327 327 326 326 326 327 327 327 326 323 320 319 321 322 322 322 322 321 320 319 319 319 320 320 321 322 322 324 326 326 326
326 326 326 327 327 325 325 326 327 327 327 326 326 326 326 326 326 326 324 322 319 320 322 323 323 323 323 322 321 319 319 319 319 319 320 321 321 322 324 326 326 325
325 326 326 327 327 326 327 327 327 327 326 325 325 326 325 325 324 321 318 318 319 322 323 323 323 323 322 321 320 319 319 319 319 319 320 321 321 322 326 326 324 323
325 326 326 326 327 327 327 327 327 327 326 325 324 326 325 323 321 317 314 318 322 323 323 322 322 322 321 321 320 319 319 320 320 320 320 321 321 323 325 325 323 322
325 325 325 325 326 326 326 327 327 327 326 325 324 325 325 321 319 317 317 320 323 323 322 322 322 321 321 320 320 319 319 320 321 321 321 321 322 323 323 323 322 321
324 325 325 325 325 326 326 326 326 325 325 324 322 323 324 321 319 319 320 321 322 322 322 322 322 321 320 318 319 319 319 320 321 321 321 322 322 322 322 321 321 321
322 323 324 324 325 326 326 326 324 323 324 324 323 323 322 320 319 320 320 320 321 322 322 321 321 320 318 317 319 319 319 319 320 321 321 322 323 322 321 321 321 320
321 322 323 323 324 325 325 326 325 324 324 324 323 323 322 320 320 320 319 319 320 321 321 321 320 319 318 318 320 320 319 319 319 320 320 321 322 322 321 320 319 316
320 321 321 322 322 323 323 324 324 323 322 322 321 320 321 321 321 321 320 319 318 319 320 320 319 318 319 320 321 320 321 320 320 320 320 321 322 320 317 316 315 313
319 320 320 320 320 321 322 322 322 320 320 320 320 319 319 320 321 321 320 319 318 318 319 319 319 319 320 320 321 321 321 320 320 321 321 321 320 317 314 312 312 312
318 319 319 319 319 320 320 321 321 320 320 320 319 319 319 319 319 319 318 318 319 319 320 319 319 320 321 321 320 320 319 319 319 319 318 317 317 315 314 313 313 312
317 318 318 318 317 318 319 320 320 319 318 318 318 317 318 317 317 316 316 317 318 319 319 319 320 320 320 319 318 318 317 316 316 316 315 314 314 313 313 313 312 312
Wind_Speed
27 27 25 21 18 15 13 12 10 8 9 10 10 13 15 16 16 16 15 16 16 15 16 16 15 16 16 15 14 13 13 12 12 12 12 12 11 10 11 10 9 8
29 28 25 22 20 17 14 12 10 9 10 11 11 13 14 15 16 17 16 15 15 15 16 16 16 16 15 14 13 13 13 13 12 12 11 11 10 10 10 10 9 9
29 29 27 24 22 18 14 12 11 11 12 12 13 14 15 15 16 16 16 16 15 16 17 16 15 15 14 14 14 14 13 13 11 11 11 10 10 10 10 10 10 10
29 30 29 26 23 18 13 12 12 12 12 13 15 16 16 16 16 16 16 16 16 17 17 16 15 15 14 14 13 13 12 11 10 10 11 11 11 11 11 11 11 11
26 28 29 27 22 16 12 13 13 12 12 14 16 18 18 17 17 16 16 16 16 17 17 16 15 14 13 12 12 11 10 10 10 10 10 10 11 12 12 11 11 11
20 24 24 23 18 12 10 12 13 13 13 14 17 18 18 17 16 16 16 15 16 16 16 15 14 14 13 12 11 10 9 9 10 10 10 10 10 11 10 10 10 10
20 23 21 19 14 9 9 10 12 13 14 15 16 17 16 15 16 16 15 15 15 15 14 14 14 14 14 13 12 10 9 8 9 11 11 10 10 9 9 9 10 10
17 19 18 16 9 6 8 9 11 13 15 16 16 16 15 15 16 16 15 15 14 14 14 13 13 14 13 13 12 11 9 8 9 11 11 10 9 9 8 9 10 10
12 9 9 10 7 5 7 8 10 13 15 16 16 16 16 16 16 15 15 14 14 14 14 13 13 13 13 12 12 11 9 8 10 10 10 9 8 8 8 9 9 10
10 6 5 6 6 5 6 8 11 14 16 16 16 16 17 17 17 16 15 14 14 14 14 13 13 13 13 12 12 11 9 9 10 10 10 8 7 7 7 8 8 9
9 8 5 6 6 5 6 7 11 14 16 17 17 17 17 18 18 17 15 14 13 13 13 13 13 13 13 12 12 11 10 10 10 11 10 9 8 7 7 8 8 8
8 7 5 6 5 5 6 6 9 12 15 17 18 19 19 19 18 16 14 12 11 11 12 14 14 14 14 12 12 12 12 11 12 12 11 10 9 7 7 8 9 9
8 7 6 6 5 6 7 7 10 13 14 17 19 19 19 19 17 15 14 12 11 12 14 15 15 14 13 12 13 13 13 13 13 12 11 10 8 7 7 9 10 10
7 7 7 7 7 8 8 9 10 13 15 17 19 18 19 18 17 16 15 13 13 13 13 14 14 15 14 13 13 13 14 13 12 11 11 10 8 7 7 9 11 10
5 5 6 8 9 9 9 10 12 15 15 17 18 18 19 17 15 15 15 14 13 13 13 15 16 16 15 13 13 13 13 12 11 11 10 9 8 8 8 9 9 9
4 5 5 6 9 10 10 10 14 15 15 16 17 17 18 16 14 14 14 14 14 15 16 16 16 16 14 13 13 13 12 11 11 11 11 9 8 8 9 8 8 11
5 5 6 6 7 9 10 11 14 16 16 16 17 17 16 15 13 13 14 14 16 18 17 16 16 16 15 14 14 13 11 11 11 12 12 9 8 9 10 9 11 15
6 4 5 6 6 7 9 12 15 18 19 18 18 17 16 14 13 12 12 15 19 19 17 17 17 16 15 15 15 13 11 11 11 13 13 10 9 10 10 11 12 14
7 5 4 6 8 8 11 14 17 18 19 17 17 18 17 15 14 13 13 15 18 18 18 17 17 16 15 15 15 14 12 11 11 14 14 11 11 11 11 12 12 11
8 6 5 6 8 9 11 15 16 17 17 17 18 19 18 17 16 14 13 13 15 16 18 18 18 16 14 14 15 15 13 12 13 15 15 14 13 12 12 11 10 9
12 8 7 5 7 10 11 12 13 14 16 18 20 20 19 19 17 15 13 13 14 16 17 18 18 16 14 14 15 14 13 13 14 14 15 15 14 13 13 12 10 8
16 12 9 6 5 7 9 12 15 16 15 16 16 16 18 21 18 15 14 14 14 15 16 16 16 15 14 15 16 15 14 14 14 15 15 16 16 15 14 13 11 9
17 14 10 9 8 4 5 8 11 11 9 10 12 14 16 19 18 15 15 15 17 17 15 15 15 15 15 16 16 16 16 15 15 15 16 17 17 16 14 13 12 10
16 14 12 11 9 5 2 4 5 4 6 8 11 14 15 17 15 15 16 16 17 17 16 16 16 16 17 17 16 16 17 17 18 18 18 19 18 17 16 15 12 9
12 12 13 13 10 5 2 4 5 5 7 7 7 10 14 15 13 16 19 19 18 18 18 18 18 19 19 18 17 17 16 16 16 17 16 16 17 16 15 13 10 8
13 10 10 12 11 6 3 6 6 7 10 9 6 9 16 17 14 15 19 20 20 20 20 19 19 20 20 19 17 16 13 10 8 8 7 6 8 9 9 9 8 8
Wind_Direction
266 264 263 261 256 253 250 248 241 220 208 206 205 202 193 184 186 188 190 193 195 199 204 207 208 206 202 204 209 211 208 206 207 208 208 208 208 208 209 211 217 218
265 266 266 264 259 255 249 245 236 211 197 192 193 195 188 184 187 190 193 198 200 203 207 208 208 206 200 198 204 204 203 205 207 210 213 212 213 216 214 215 217 214
265 269 268 265 261 256 247 241 227 203 190 184 184 188 187 186 190 194 196 201 205 206 207 205 203 203 199 196 200 200 201 205 209 212 215 217 221 223 220 219 217 215
265 269 268 264 261 254 238 229 218 199 189 186 183 184 185 186 191 196 198 202 205 202 201 199 196 199 202 200 200 199 197 203 210 213 215 219 223 223 221 221 219 216
273 276 269 261 257 248 228 217 209 197 190 187 184 184 186 187 191 194 196 198 197 194 194 195 195 198 203 201 196 195 197 202 207 208 212 217 218 217 218 219 218 216
296 296 277 260 254 240 220 211 203 195 190 187 184 185 189 192 193 191 191 191 190 190 192 194 194 196 199 196 190 191 197 204 209 207 207 210 211 213 213 212 212 211
302 306 291 273 260 229 207 206 200 194 191 188 186 189 193 194 194 191 187 186 188 191 192 193 195 194 193 192 189 192 199 206 211 206 205 209 212 213 212 209 209 207
306 310 309 301 284 223 201 202 198 194 191 189 190 196 198 194 194 193 188 185 188 193 193 194 197 196 195 196 196 200 207 210 209 203 203 210 214 214 212 210 210 205
333 323 314 307 288 233 215 210 205 196 190 191 196 201 201 194 194 197 193 187 187 192 196 197 200 200 199 201 202 206 214 214 206 198 198 205 211 210 207 205 205 199
328 314 297 289 277 252 230 215 208 198 189 193 200 205 203 195 195 200 197 189 186 192 199 201 205 207 206 209 212 212 213 207 193 185 186 191 194 195 196 195 197 196
299 292 299 300 286 261 235 215 207 200 193 193 199 205 204 197 196 198 195 189 189 196 205 210 216 219 220 222 218 207 198 189 180 177 177 176 171 169 176 183 187 192
300 281 286 299 284 249 231 219 213 208 199 196 200 203 202 198 194 192 190 190 195 204 214 223 227 227 227 222 207 193 186 181 177 176 174 170 164 161 169 178 181 185
314 287 269 277 268 240 227 222 218 212 201 199 201 202 202 197 189 188 195 200 207 217 226 229 226 219 211 200 191 187 185 181 176 175 174 171 168 171 176 181 184 187
320 302 273 260 256 245 234 225 214 206 200 198 199 201 202 195 187 192 205 211 218 225 223 212 203 196 189 184 185 187 186 182 179 180 179 174 177 184 181 184 188 188
317 318 288 262 252 247 238 223 208 202 199 197 198 201 199 191 186 198 215 224 223 214 198 188 185 185 184 183 185 186 185 186 187 187 183 179 186 190 183 186 189 177
318 329 310 273 249 239 236 223 208 204 201 196 198 202 195 186 189 206 223 227 213 195 185 184 186 186 188 188 187 187 188 188 189 188 183 185 198 194 183 179 167 151
337 335 324 301 258 232 229 219 204 199 196 190 191 195 190 186 196 214 222 211 195 189 187 188 190 193 194 193 191 189 186 186 190 191 187 190 197 186 174 161 145 140
342 328 320 303 267 227 217 217 205 194 190 186 184 186 186 188 196 203 202 194 189 190 191 192 195 198 198 198 195 190 185 187 192 190 186 185 181 169 160 152 146 146
344 316 309 281 252 219 203 208 202 192 187 181 180 185 186 186 188 185 183 189 194 196 197 198 199 199 200 202 197 189 185 181 179 180 182 181 171 161 156 154 153 152
359 320 306 272 242 221 205 203 200 198 192 182 184 195 192 184 186 188 187 194 198 200 202 203 201 200 201 198 192 187 183 178 177 181 185 183 175 167 163 160 159 157
15 348 323 290 246 230 217 207 201 201 198 191 195 203 194 182 186 194 198 204 204 201 203 201 200 202 198 189 185 182 182 185 188 190 191 189 184 177 173 171 167 159
19 3 347 338 297 249 232 225 213 205 205 203 206 210 193 181 187 196 199 205 207 205 205 200 197 197 191 182 179 179 184 191 194 194 192 190 185 179 177 175 168 154
18 9 3 358 339 294 244 233 213 202 209 204 210 224 203 180 184 198 200 204 209 210 210 204 195 187 181 179 179 179 185 193 196 195 193 190 186 182 175 169 164 160
20 13 9 3 348 325 262 205 177 196 244 219 213 223 201 175 184 201 198 199 203 202 202 199 189 178 175 180 184 185 190 194 195 197 197 193 191 185 176 171 173 183
27 19 13 10 360 334 251 178 162 195 215 199 198 200 179 170 186 189 178 179 185 185 185 185 180 173 172 175 179 184 191 192 192 195 196 192 190 188 186 191 200 214
38 37 31 32 31 31 137 146 144 161 158 152 177 185 170 172 178 162 152 158 165 168 171 171 172 172 172 175 179 185 193 196 199 209 214 208 204 203 204 209 217 232